Retour au catalogue

COSMOS 1375 DEB

ActifLEO
NORAD 17803·DEBRIS·🇷🇺 Russia

Lancé Jun 6, 1982 depuis Plesetsk Cosmodrome

Loading…

Prochains Passages (prochaines 24 heures)

TLE

FraisSource: Space-Track

Époque: Sep 14, 2026, 06:32 UTC

1 17803U 82055AV  26257.27255838  .00000061  00000-0  13419-3 0  9999
2 17803  65.8348   6.1104 0044552 194.1879 190.1546 13.80941723 56191

Suivez COSMOS 1375 DEB en temps réel avec AllMySat

Download on the App Store